User: anonymous   Login
Location: Medlow Airstrip Trail, Medlow Bath NSW 2780, Australia
(33.6682°S, 150.3233°E)
Time: 19:54:37
(UTC+10:00)
Language:

LightSail 2 - Orbit

View from above orbital plane
View from above orbital plane
View from above satellite
View from above satellite

Ground track
Ground track

The orbit data is extracted from the following two-line orbital elements,

1 44420U 19036AC  19260.68328998  .00002692  00000-0  58834-3 0  9994
2 44420  24.0074  34.0403 0023041   6.4266 353.5966 14.52981776 10414
Epoch (UTC): 17 September 2019 16:23:56
Eccentricity: 0.0023041
inclination: 24.0074°
perigee height: 699 km
apogee height: 732 km
right ascension of ascending node: 34.0403°
argument of perigee: 6.4266°
revolutions per day: 14.52981776
mean anomaly at epoch: 353.5966°
orbit number at epoch: 1041

The dashed part of the orbit path shows where the satellite is in the earth's shadow,  

DLR